This is the latest recevied weather packets stored in our database for station/object DN9EM-2. If no packets are shown the sender has not sent any weather packets the latest 10 day(s).
| Time | Temp. | Humidity | Pressure | Rain* | Wind** | Luminosity | Snow |
|---|---|---|---|---|---|---|---|
| 1778099425 | 10° C | 72% | 1012 hPa | 0 mm | - | - | - |
| 1778098823 | 10.56° C | 71% | 1011.9 hPa | 0 mm | - | - | - |
| 1778098220 | 10.56° C | 70% | 1011.8 hPa | 0 mm | - | - | - |
| 1778097617 | 10.56° C | 68% | 1011.9 hPa | 0 mm | - | - | - |
| 1778097075 | 11.11° C | 66% | 1011.6 hPa | 0 mm | - | - | - |
| 1778096472 | 11.11° C | 66% | 1011.6 hPa | 0 mm | - | - | - |
| 1778095870 | 11.11° C | 66% | 1011.5 hPa | 0 mm | - | - | - |
| 1778095261 | 11.11° C | 65% | 1011.4 hPa | 0 mm | - | - | - |
| 1778094658 | 11.67° C | 60% | 1011.4 hPa | 0 mm | - | - | - |
| 1778094056 | 11.67° C | 58% | 1011.2 hPa | 0 mm | - | - | - |
| 1778093448 | 11.67° C | 57% | 1011.1 hPa | 0 mm | - | - | - |
| 1778092845 | 11.67° C | 57% | 1011 hPa | 0 mm | - | - | - |
| 1778092237 | 12.22° C | 55% | 1011 hPa | 0 mm | - | - | - |
| 1778091634 | 12.22° C | 54% | 1010.9 hPa | 0 mm | - | - | - |
| 1778091032 | 12.22° C | 56% | 1010.9 hPa | 0 mm | - | - | - |
| 1778090423 | 12.22° C | 62% | 1010.8 hPa | 0 mm | - | - | - |
| 1778089821 | 12.78° C | 65% | 1010.8 hPa | 0 mm | - | - | - |
| 1778089272 | 12.78° C | 66% | 1010.7 hPa | 0 mm | - | - | - |
| 1778088670 | 12.78° C | 66% | 1010.6 hPa | 0 mm | - | - | - |
| 1778088061 | 12.78° C | 66% | 1010.6 hPa | 0 mm | - | - | - |
| 1778087458 | 12.78° C | 66% | 1010.5 hPa | 0 mm | - | - | - |
| 1778086856 | 12.78° C | 67% | 1010.4 hPa | 0 mm | - | - | - |
| 1778086247 | 13.33° C | 66% | 1010.4 hPa | 0 mm | - | - | - |
| 1778085645 | 13.33° C | 64% | 1010.5 hPa | 0 mm | - | - | - |
| 1778085036 | 13.33° C | 62% | 1010.4 hPa | 0 mm | - | - | - |
* Rain latest hour (hover to see other rain measurements)
** Current wind speed in m/s (hover to see current wind gust speed)